SCP
0 -0 0 0 0 0 0 0 0 0 0 0 -0 -0 -0 -0 -0 0 0 0 -0 -0 0 0 0 0 0 0 0 0 0 0 0 0 0 0 0 0 0 0 0 0 0 0 0
0 0 -0 0 0 -0 0 0 0 0 0 -0 -0 -0 -0 -0 -0 -0 -0 -0 -0 -0 0 0 0 0 0 0 0 0 0 0 0 0 0 0 0 0 0 0 0 0 0 0 0
0 0 0 -0 -0 -0 -0 -0 -0 0 0 -0 -0 -0 -0 -0 0 -0 -0 -0 -0 -0 -0 -0 0 0 0 0 0 0 0 0 0 0 0 -0 0 -0 0 0 0 0 0 0 0
0 0 0 0 0 -0 -0 -0 -0 -0 -0 -0 -0 -0 -0 -0 0 -0 -0 -0 -0 0 -0 0 0 0 0 0 0 0 0 0 0 0 0 0 -0 0 0 0 0 0 0 0 0
-0 0 0 0 0 -0 -0 -0 -0 -0 -0 -0 -0 -0 -0 -0 -0 -0 -0 -0 -0 -0 0 0 0 -0 0 0 0 0 0 0 0 0 -0 0 0 0 0 0 0 0 0 0 0
-0 0 0 0 0 0 0 0 0 -0 -0 -0 -0 -0 -0 0 -0 -0 0 0 0 0 0 0 0 0 0 0 0 0 0 0 0 0 0 0 0 0 0 0 0 0 0 0 0
-0 -0 0 0 0 0 0 0 0 -0 -0 -0 -0 -0 0 0 0 0 0 0 0 0 0 0 0 0 0 0 0 0 0 0 0 0 0 0 0 0 -0 0 0 0 0 0 0
-0 -0 -0 0 0 0 0 0 0 -0 -0 -0 -0 -0 0 0 0 0 0 0 0 0 0 0 0 0 0 0 0 0 0 0 0 0 0 0 0 -0 0 0 0 0 0 0 0
-0 -0 -0 0 -0 -0 0 0 0 -0 0 -0 0 0 -0 0 0 0 0 0 0 0 0 0 0 0 0 0 0 0 0 0 0 0 0 0 -0 0 0 0 0 0 0 0 0
-0 -0 -0 0 0 -0 -0 0 0 0 0 0 0 0 0 0 0 0 0 0 0 0 0 0 0 0 0 0 0 0 0 0 0 0 0 -0 -0 -0 0 0 0 0 0 -0 0
-0 -0 -0 -0 -0 0 0 0 0 0 0 0 0 0 0 0 0 0 0 0 0 0 0 0 0 0 0 0 0 0 0 0 0 0 0 0 0 -0 0 0 0 0 0 0 0
-0 -0 -0 -0 -0 0 0 0 0 0 0 0 0 0 0 0 0 0 0 0 0 0 0 0 0 0 0 0 0 0 0 -0 0 0 0 0 0 0 0 0 0 0 0 0 0
0 -0 -0 -0 0 0 0 0 0 0 0 0 0 0 0 0 0 0 0 0 0 0 0 0 0 0 0 0 0 0 0 0 0 0 0 0 0 0 0 0 0 0 0 0 0
-0 -0 -0 0 0 0 0 0 0 0 0 0 0 0 0 0 0 0 0 0 0 0 0 0 0 0 0 0 0 0 0 0 0 0 0 0 0 0 0 0 0 0 0 0 0
-0 0 0 0 0 0 0 0 0 0 0 0 0 0 0 0 0 0 0 0 0 0 0 0 0 0 0 0 0 0 0 0 0 0 0 0 0 0 0 0 0 0 0 0 0
0 0 0 0 0 0 0 0 0 0 0 0 0 0 0 0 0 0 0 0 0 0 0 0 0 0 0 0 0 0 0 0 0 0 0 0 0 0 0 0 0 0 0 0 0
0 0 0 0 0 0 0 0 0 0 0 0 0 0 0 0 0 0 0 0 0 0 0 0 0 0 0 -0 0 0 0 0 0 0 0 0 0 0 0 0 0 0 0 0 0
0 0 0 0 0 0 0 0 0 0 0 0 0 0 0 0 0 0 0 0 0 0 0 0 0 0 0 0 0 0 0 0 0 0 0 0 0 0 0 0 -0 0 0 0 0
0 0 0 0 0 0 0 0 0 0 0 0 0 0 0 0 0 0 0 0 0 0 0 0 0 0 0 0 0 0 0 0 0 0 0 0 0 0 -0 0 -0 -0 0 0 0
0 0 0 0 0 0 0 0 0 0 0 0 0 0 0 0 0 0 0 0 0 0 0 0 0 0 0 0 0 0 0 0 0 0 0 0 0 0 -0 -0 -0 -0 0 0 0
0 0 0 0 0 0 0 0 0 0 0 0 0 0 0 0 0 0 0 0 0 0 0 0 0 0 0 0 0 0 0 0 0 0 0 0 0 0 -0 -0 -0 -0 0 0 0
0 0 0 0 0 0 0 0 0 0 0 0 0 0 0 0 0 0 0 0 0 0 0 0 0 0 0 0 0 0 0 0 0 0 0 0 0 0 -0 -0 -0 -0 0 0 0
0 0 0 0 0 0 0 0 0 0 0 0 0 0 0 0 0 0 0 0 0 0 0 0 0 0 0 0 0 0 -0 0 0 0 0 0 0 -0 -0 -0 -0 -0 -0 0 -0
0 0 0 0 0 0 0 0 0 0 0 0 0 0 0 0 0 0 0 0 0 0 0 0 0 0 0 0 0 0 -0 0 0 0 0 0 0 -0 -0 -0 -0 -0 -0 0 0
0 0 0 0 0 0 0 0 0 0 0 0 0 0 0 0 0 0 0 0 0 0 0 0 0 0 0 0 0 0 -0 0 -0 0 0 0 0 -0 -0 -0 -0 -0 -0 -0 0
0 0 0 0 0 0 0 0 0 0 0 0 0 0 0 0 0 0 0 0 0 0 0 0 0 0 0 0 0 -0 0 -0 0 -0 0 0 0 -0 -0 -0 -0 -0 -0 -0 0
0 0 0 0 0 0 0 0 0 0 0 0 0 0 0 0 0 0 0 0 0 0 0 0 0 0 0 0 0 -0 -0 -0 0 0 -0 0 0 0 -0 -0 -0 -0 -0 0 0
Wind_Speed_500mb
43 38 34 31 27 21 20 23 28 32 35 36 35 29 25 34 34 34 33 29 30 29 26 21 17 14 7 5 3 4 7 2 7 3 5 22 13 38 28 27 34 31 59 64 64
45 41 37 32 27 21 19 22 25 30 33 34 31 26 20 23 31 34 29 26 25 24 25 22 20 14 5 4 2 6 6 11 9 5 12 18 22 34 16 31 30 45 54 52 52
45 43 39 35 28 22 21 21 26 29 30 32 30 29 15 11 19 24 25 25 26 26 25 23 23 15 6 7 6 2 8 9 13 35 19 8 21 23 13 11 21 34 55 58 48
44 42 40 35 29 24 23 24 25 29 29 30 28 30 36 18 10 17 23 23 24 24 23 20 17 8 5 2 7 4 22 25 14 25 25 16 23 14 34 37 47 48 45 56 51
41 38 38 36 30 25 24 28 24 25 25 26 23 19 28 22 13 13 11 10 17 20 21 21 18 10 4 7 10 10 8 14 34 44 45 48 29 29 39 57 51 36 49 56 51
37 33 29 30 28 26 26 27 22 23 20 14 15 17 13 10 10 4 6 10 14 19 22 19 12 19 7 9 4 8 26 35 34 49 43 25 36 26 29 47 58 50 44 52 52
38 30 27 21 22 25 28 27 20 17 18 11 7 7 9 13 18 19 19 12 16 21 24 21 16 15 14 12 6 17 14 14 10 10 13 11 17 18 44 46 31 25 25 34 48
38 29 27 15 19 26 28 27 15 12 22 10 11 9 7 22 29 29 24 22 18 24 29 21 18 22 10 11 15 12 4 9 10 15 14 9 31 13 25 23 30 48 25 32 39
37 32 22 15 18 26 28 23 8 10 22 11 17 14 6 35 44 33 28 26 22 23 24 24 16 11 4 3 8 5 13 11 18 11 11 10 28 10 24 45 55 45 44 34 40
34 34 22 14 18 23 29 17 7 12 24 11 27 10 26 48 51 43 33 26 30 29 22 9 6 3 6 7 11 17 19 19 31 11 25 38 49 51 44 40 50 52 52 32 41
32 33 23 12 16 22 28 11 11 5 14 9 17 4 34 49 32 24 20 19 20 18 5 4 3 18 30 17 26 28 27 35 46 31 26 38 48 50 45 34 37 42 46 39 41
35 29 24 15 19 19 25 13 12 7 11 13 28 23 44 31 15 49 20 8 6 9 3 8 20 26 13 14 18 21 30 46 36 27 18 34 50 44 47 40 44 46 46 51 51
33 30 29 10 12 22 14 15 12 10 1 10 13 20 37 32 12 48 31 10 7 7 9 10 26 28 9 15 24 23 21 35 42 41 31 42 57 35 32 47 56 56 63 58 55
30 35 38 34 13 28 10 27 23 6 8 12 13 14 32 31 19 34 29 8 5 8 12 14 8 5 19 12 9 14 9 22 29 23 20 8 29 34 30 34 28 38 49 63 62
19 33 43 40 34 29 34 36 4 11 7 18 11 23 29 23 23 34 29 9 8 12 6 17 13 10 12 9 3 22 30 28 35 29 25 32 13 16 16 26 38 34 43 54 58
42 21 39 42 39 36 33 6 13 11 3 11 7 12 12 16 28 24 16 16 6 7 5 27 20 7 9 10 17 24 14 38 18 4 6 13 12 14 12 15 25 13 38 54 56
38 23 40 37 44 38 30 6 10 11 7 14 13 11 9 12 12 13 10 13 5 13 24 18 8 7 5 15 10 10 21 10 9 1 9 13 7 17 21 26 17 20 34 49 53
57 14 45 36 40 40 23 10 14 5 9 10 10 12 7 13 10 15 13 11 1 3 7 10 17 7 3 4 14 17 4 5 13 11 22 9 11 11 20 26 35 31 23 34 46
59 26 23 36 34 32 9 11 8 5 7 9 15 6 8 8 3 14 8 5 2 1 5 9 12 11 22 17 6 6 11 8 10 10 7 5 10 11 32 33 34 23 22 16 11
61 31 25 42 18 19 12 4 5 6 7 5 6 2 7 12 11 10 6 6 8 4 6 7 16 10 16 9 3 4 15 6 5 11 7 9 3 8 42 50 43 35 24 32 11
49 19 25 45 14 17 7 6 7 15 8 3 4 7 10 10 6 7 9 9 2 7 12 2 9 18 18 6 10 8 14 8 7 8 6 9 3 8 31 37 36 35 37 33 21
35 10 28 40 15 7 3 6 11 11 14 6 3 9 6 9 8 5 8 5 14 7 8 8 6 13 29 30 12 12 13 12 6 14 4 6 7 12 34 31 29 30 38 41 26
41 13 15 31 7 7 13 9 6 13 10 8 8 4 10 6 9 10 7 11 24 9 6 3 4 13 16 11 11 8 27 31 25 12 6 6 12 27 28 30 44 39 47 25 20
16 8 11 17 14 6 10 8 12 22 12 21 9 7 12 9 11 11 6 8 27 16 16 3 4 11 10 28 29 25 28 37 15 11 19 4 27 34 41 41 42 58 54 35 16
11 5 5 8 8 9 2 8 12 15 10 18 6 7 7 9 11 8 8 10 17 11 7 6 10 8 17 28 27 28 23 34 26 32 12 36 29 39 38 31 38 54 58 40 19
13 11 13 13 15 9 6 7 6 7 7 12 5 24 11 12 12 31 18 3 13 4 4 5 9 8 21 15 22 27 20 23 14 28 27 33 22 35 46 48 54 53 57 43 33
18 14 9 8 8 4 1 6 9 27 14 25 20 18 15 13 37 67 55 53 34 15 5 6 5 10 9 14 21 2 21 18 21 21 21 22 27 35 35 27 31 47 56 46 35
Wind_Direction_500mb
7 3 356 353 357 5 14 17 12 14 11 2 4 21 54 86 68 58 50 51 57 60 58 56 39 17 56 86 154 108 48 323 276 323 253 314 355 314 312 284 278 293 294 295 310
16 13 6 3 3 12 21 19 18 16 12 13 22 40 85 92 60 47 43 55 55 50 43 39 32 35 53 44 132 101 116 226 221 272 272 283 299 299 294 295 282 292 292 291 310
23 18 18 22 25 34 28 23 22 22 23 35 50 48 64 131 58 31 50 49 47 44 37 33 30 38 62 345 21 70 196 220 266 290 298 264 298 295 275 272 267 278 294 294 301
23 25 28 30 38 44 39 26 27 29 38 45 66 61 59 67 73 43 47 38 31 22 15 17 18 20 82 343 306 300 241 251 261 291 308 291 287 259 267 270 287 287 293 292 287
21 29 32 36 42 48 39 25 32 38 50 56 62 66 63 66 91 64 39 28 16 4 351 349 3 12 29 277 297 217 266 284 291 288 287 281 254 257 256 282 284 272 287 287 280
16 28 35 39 41 36 26 20 28 40 51 60 62 60 46 52 359 341 351 343 340 343 345 329 321 330 273 251 163 258 274 279 282 270 268 259 263 254 257 259 271 279 274 280 283
13 18 23 39 33 19 10 10 17 35 45 56 31 17 15 13 339 321 309 301 303 307 313 336 298 304 314 302 311 282 307 319 260 252 255 292 284 223 261 264 252 270 290 283 280
11 16 14 39 26 15 4 2 9 41 27 43 28 335 307 342 344 323 304 313 302 299 292 311 269 277 248 286 333 341 321 339 280 305 264 113 277 295 272 259 297 301 287 289 278
10 14 25 41 36 16 7 5 22 40 9 11 2 355 348 342 336 321 308 300 299 304 302 288 276 262 288 11 347 326 268 284 306 226 281 162 289 260 290 298 287 273 279 285 282
13 13 19 36 33 21 13 10 36 26 4 7 8 3 358 341 329 318 316 278 284 294 291 256 260 337 29 82 276 281 281 278 276 255 296 287 273 283 276 266 260 266 278 269 271
16 13 21 37 24 24 21 25 9 356 20 42 350 332 339 351 27 352 316 288 280 266 260 328 303 263 271 247 261 282 277 265 276 279 282 272 272 279 287 248 251 255 259 259 261
18 12 23 64 34 25 27 56 31 336 317 24 18 20 6 1 358 14 333 274 263 264 318 339 260 282 287 278 270 265 273 281 283 281 259 272 267 270 269 263 250 251 252 252 259
14 17 20 360 347 11 22 27 5 327 336 358 8 17 8 347 8 8 343 306 271 285 259 230 264 315 308 301 291 270 260 275 279 296 275 280 280 261 258 254 258 252 245 240 245
30 31 22 14 355 349 349 336 321 266 68 319 339 356 351 349 1 353 347 282 293 280 311 269 280 313 312 278 268 288 250 271 282 296 299 195 293 286 276 266 244 228 222 230 236
344 17 9 0 349 348 338 325 288 164 28 307 317 351 357 16 304 353 345 320 277 281 61 265 299 320 298 240 287 262 292 280 276 274 295 281 263 269 297 273 269 249 227 229 231
357 341 358 356 359 341 340 18 132 43 326 332 315 337 14 341 336 343 353 350 293 324 247 263 290 236 232 265 264 279 305 294 279 274 228 274 188 283 343 276 292 246 220 222 229
5 20 9 359 355 346 342 197 34 81 18 305 299 360 323 328 315 353 334 1 33 356 343 319 279 260 214 305 292 24 332 310 342 327 252 230 228 254 288 323 300 275 228 233 228
359 322 9 358 351 344 345 57 67 255 270 281 317 329 317 357 314 331 355 353 214 75 308 1 325 12 358 220 274 307 320 306 304 302 296 295 238 272 323 333 326 343 319 229 215
350 341 335 359 346 348 351 53 186 239 258 304 331 8 322 315 307 5 320 291 302 104 20 338 271 297 292 284 192 354 315 255 267 241 268 216 275 292 330 335 343 349 13 36 168
349 347 5 351 355 356 68 203 220 228 321 49 1 346 313 312 348 0 301 283 339 191 163 267 293 263 312 320 185 220 311 289 230 304 292 286 287 323 339 335 337 339 350 345 284
353 345 350 357 10 48 96 247 292 317 340 252 266 284 268 300 268 294 273 293 90 294 180 228 211 295 325 324 333 342 316 282 268 250 286 302 330 335 332 326 324 326 321 311 268
355 343 343 3 44 39 31 293 317 342 335 327 297 219 239 292 286 278 259 259 337 335 300 225 274 289 285 289 249 308 306 305 287 315 286 267 307 299 326 333 333 314 308 296 232
336 300 354 15 63 347 317 313 311 353 313 27 290 253 30 296 307 224 250 262 310 345 253 203 280 305 332 13 10 355 324 345 316 275 286 327 308 318 336 1 347 349 351 319 231
333 347 350 51 83 49 352 320 332 334 302 342 266 58 2 303 235 273 289 304 312 281 235 172 266 215 263 287 294 298 330 349 354 342 318 333 323 1 2 1 354 352 1 27 165
359 23 8 315 1 352 300 329 339 5 320 319 320 64 339 291 290 249 260 315 296 298 171 183 257 234 251 271 286 271 354 346 2 357 356 336 356 357 352 353 354 358 8 30 43
18 4 348 306 320 342 13 22 302 333 264 299 288 312 306 232 243 290 315 247 250 311 258 208 272 284 304 298 310 310 4 341 9 5 353 343 343 351 340 347 5 2 6 17 36
8 354 337 317 343 14 237 346 308 323 277 258 304 318 296 249 300 284 273 263 248 272 309 256 266 313 275 301 316 80 6 335 327 26 358 347 328 336 343 340 16 0 9 10 45
Wind_Speed_850mb
43 38 34 31 27 21 20 23 28 32 35 36 35 29 25 34 34 34 33 29 30 29 26 21 17 14 7 5 3 4 7 2 7 3 5 22 13 38 28 27 34 31 59 64 64
45 41 37 32 27 21 19 22 25 30 33 34 31 26 20 23 31 34 29 26 25 24 25 22 20 14 5 4 2 6 6 11 9 5 12 18 22 34 16 31 30 45 54 52 52
45 43 39 35 28 22 21 21 26 29 30 32 30 29 15 11 19 24 25 25 26 26 25 23 23 15 6 7 6 2 8 9 13 35 19 8 21 23 13 11 21 34 55 58 48
44 42 40 35 29 24 23 24 25 29 29 30 28 30 36 18 10 17 23 23 24 24 23 20 17 8 5 2 7 4 22 25 14 25 25 16 23 14 34 37 47 48 45 56 51
41 38 38 36 30 25 24 28 24 25 25 26 23 19 28 22 13 13 11 10 17 20 21 21 18 10 4 7 10 10 8 14 34 44 45 48 29 29 39 57 51 36 49 56 51
37 33 29 30 28 26 26 27 22 23 20 14 15 17 13 10 10 4 6 10 14 19 22 19 12 19 7 9 4 8 26 35 34 49 43 25 36 26 29 47 58 50 44 52 52
38 30 27 21 22 25 28 27 20 17 18 11 7 7 9 13 18 19 19 12 16 21 24 21 16 15 14 12 6 17 14 14 10 10 13 11 17 18 44 46 31 25 25 34 48
38 29 27 15 19 26 28 27 15 12 22 10 11 9 7 22 29 29 24 22 18 24 29 21 18 22 10 11 15 12 4 9 10 15 14 9 31 13 25 23 30 48 25 32 39
37 32 22 15 18 26 28 23 8 10 22 11 17 14 6 35 44 33 28 26 22 23 24 24 16 11 4 3 8 5 13 11 18 11 11 10 28 10 24 45 55 45 44 34 40
34 34 22 14 18 23 29 17 7 12 24 11 27 10 26 48 51 43 33 26 30 29 22 9 6 3 6 7 11 17 19 19 31 11 25 38 49 51 44 40 50 52 52 32 41
32 33 23 12 16 22 28 11 11 5 14 9 17 4 34 49 32 24 20 19 20 18 5 4 3 18 30 17 26 28 27 35 46 31 26 38 48 50 45 34 37 42 46 39 41
35 29 24 15 19 19 25 13 12 7 11 13 28 23 44 31 15 49 20 8 6 9 3 8 20 26 13 14 18 21 30 46 36 27 18 34 50 44 47 40 44 46 46 51 51
33 30 29 10 12 22 14 15 12 10 1 10 13 20 37 32 12 48 31 10 7 7 9 10 26 28 9 15 24 23 21 35 42 41 31 42 57 35 32 47 56 56 63 58 55
30 35 38 34 13 28 10 27 23 6 8 12 13 14 32 31 19 34 29 8 5 8 12 14 8 5 19 12 9 14 9 22 29 23 20 8 29 34 30 34 28 38 49 63 62
19 33 43 40 34 29 34 36 4 11 7 18 11 23 29 23 23 34 29 9 8 12 6 17 13 10 12 9 3 22 30 28 35 29 25 32 13 16 16 26 38 34 43 54 58
42 21 39 42 39 36 33 6 13 11 3 11 7 12 12 16 28 24 16 16 6 7 5 27 20 7 9 10 17 24 14 38 18 4 6 13 12 14 12 15 25 13 38 54 56
38 23 40 37 44 38 30 6 10 11 7 14 13 11 9 12 12 13 10 13 5 13 24 18 8 7 5 15 10 10 21 10 9 1 9 13 7 17 21 26 17 20 34 49 53
57 14 45 36 40 40 23 10 14 5 9 10 10 12 7 13 10 15 13 11 1 3 7 10 17 7 3 4 14 17 4 5 13 11 22 9 11 11 20 26 35 31 23 34 46
59 26 23 36 34 32 9 11 8 5 7 9 15 6 8 8 3 14 8 5 2 1 5 9 12 11 22 17 6 6 11 8 10 10 7 5 10 11 32 33 34 23 22 16 11
61 31 25 42 18 19 12 4 5 6 7 5 6 2 7 12 11 10 6 6 8 4 6 7 16 10 16 9 3 4 15 6 5 11 7 9 3 8 42 50 43 35 24 32 11
49 19 25 45 14 17 7 6 7 15 8 3 4 7 10 10 6 7 9 9 2 7 12 2 9 18 18 6 10 8 14 8 7 8 6 9 3 8 31 37 36 35 37 33 21
35 10 28 40 15 7 3 6 11 11 14 6 3 9 6 9 8 5 8 5 14 7 8 8 6 13 29 30 12 12 13 12 6 14 4 6 7 12 34 31 29 30 38 41 26
41 13 15 31 7 7 13 9 6 13 10 8 8 4 10 6 9 10 7 11 24 9 6 3 4 13 16 11 11 8 27 31 25 12 6 6 12 27 28 30 44 39 47 25 20
16 8 11 17 14 6 10 8 12 22 12 21 9 7 12 9 11 11 6 8 27 16 16 3 4 11 10 28 29 25 28 37 15 11 19 4 27 34 41 41 42 58 54 35 16
11 5 5 8 8 9 2 8 12 15 10 18 6 7 7 9 11 8 8 10 17 11 7 6 10 8 17 28 27 28 23 34 26 32 12 36 29 39 38 31 38 54 58 40 19
13 11 13 13 15 9 6 7 6 7 7 12 5 24 11 12 12 31 18 3 13 4 4 5 9 8 21 15 22 27 20 23 14 28 27 33 22 35 46 48 54 53 57 43 33
18 14 9 8 8 4 1 6 9 27 14 25 20 18 15 13 37 67 55 53 34 15 5 6 5 10 9 14 21 2 21 18 21 21 21 22 27 35 35 27 31 47 56 46 35
Wind_Direction_850mb
7 3 356 353 357 5 14 17 12 14 11 2 4 21 54 86 68 58 50 51 57 60 58 56 39 17 56 86 154 108 48 323 276 323 253 314 355 314 312 284 278 293 294 295 310
16 13 6 3 3 12 21 19 18 16 12 13 22 40 85 92 60 47 43 55 55 50 43 39 32 35 53 44 132 101 116 226 221 272 272 283 299 299 294 295 282 292 292 291 310
23 18 18 22 25 34 28 23 22 22 23 35 50 48 64 131 58 31 50 49 47 44 37 33 30 38 62 345 21 70 196 220 266 290 298 264 298 295 275 272 267 278 294 294 301
23 25 28 30 38 44 39 26 27 29 38 45 66 61 59 67 73 43 47 38 31 22 15 17 18 20 82 343 306 300 241 251 261 291 308 291 287 259 267 270 287 287 293 292 287
21 29 32 36 42 48 39 25 32 38 50 56 62 66 63 66 91 64 39 28 16 4 351 349 3 12 29 277 297 217 266 284 291 288 287 281 254 257 256 282 284 272 287 287 280
16 28 35 39 41 36 26 20 28 40 51 60 62 60 46 52 359 341 351 343 340 343 345 329 321 330 273 251 163 258 274 279 282 270 268 259 263 254 257 259 271 279 274 280 283
13 18 23 39 33 19 10 10 17 35 45 56 31 17 15 13 339 321 309 301 303 307 313 336 298 304 314 302 311 282 307 319 260 252 255 292 284 223 261 264 252 270 290 283 280
11 16 14 39 26 15 4 2 9 41 27 43 28 335 307 342 344 323 304 313 302 299 292 311 269 277 248 286 333 341 321 339 280 305 264 113 277 295 272 259 297 301 287 289 278
10 14 25 41 36 16 7 5 22 40 9 11 2 355 348 342 336 321 308 300 299 304 302 288 276 262 288 11 347 326 268 284 306 226 281 162 289 260 290 298 287 273 279 285 282
13 13 19 36 33 21 13 10 36 26 4 7 8 3 358 341 329 318 316 278 284 294 291 256 260 337 29 82 276 281 281 278 276 255 296 287 273 283 276 266 260 266 278 269 271
16 13 21 37 24 24 21 25 9 356 20 42 350 332 339 351 27 352 316 288 280 266 260 328 303 263 271 247 261 282 277 265 276 279 282 272 272 279 287 248 251 255 259 259 261
18 12 23 64 34 25 27 56 31 336 317 24 18 20 6 1 358 14 333 274 263 264 318 339 260 282 287 278 270 265 273 281 283 281 259 272 267 270 269 263 250 251 252 252 259
14 17 20 360 347 11 22 27 5 327 336 358 8 17 8 347 8 8 343 306 271 285 259 230 264 315 308 301 291 270 260 275 279 296 275 280 280 261 258 254 258 252 245 240 245
30 31 22 14 355 349 349 336 321 266 68 319 339 356 351 349 1 353 347 282 293 280 311 269 280 313 312 278 268 288 250 271 282 296 299 195 293 286 276 266 244 228 222 230 236
344 17 9 0 349 348 338 325 288 164 28 307 317 351 357 16 304 353 345 320 277 281 61 265 299 320 298 240 287 262 292 280 276 274 295 281 263 269 297 273 269 249 227 229 231
357 341 358 356 359 341 340 18 132 43 326 332 315 337 14 341 336 343 353 350 293 324 247 263 290 236 232 265 264 279 305 294 279 274 228 274 188 283 343 276 292 246 220 222 229
5 20 9 359 355 346 342 197 34 81 18 305 299 360 323 328 315 353 334 1 33 356 343 319 279 260 214 305 292 24 332 310 342 327 252 230 228 254 288 323 300 275 228 233 228
359 322 9 358 351 344 345 57 67 255 270 281 317 329 317 357 314 331 355 353 214 75 308 1 325 12 358 220 274 307 320 306 304 302 296 295 238 272 323 333 326 343 319 229 215
350 341 335 359 346 348 351 53 186 239 258 304 331 8 322 315 307 5 320 291 302 104 20 338 271 297 292 284 192 354 315 255 267 241 268 216 275 292 330 335 343 349 13 36 168
349 347 5 351 355 356 68 203 220 228 321 49 1 346 313 312 348 0 301 283 339 191 163 267 293 263 312 320 185 220 311 289 230 304 292 286 287 323 339 335 337 339 350 345 284
353 345 350 357 10 48 96 247 292 317 340 252 266 284 268 300 268 294 273 293 90 294 180 228 211 295 325 324 333 342 316 282 268 250 286 302 330 335 332 326 324 326 321 311 268
355 343 343 3 44 39 31 293 317 342 335 327 297 219 239 292 286 278 259 259 337 335 300 225 274 289 285 289 249 308 306 305 287 315 286 267 307 299 326 333 333 314 308 296 232
336 300 354 15 63 347 317 313 311 353 313 27 290 253 30 296 307 224 250 262 310 345 253 203 280 305 332 13 10 355 324 345 316 275 286 327 308 318 336 1 347 349 351 319 231
333 347 350 51 83 49 352 320 332 334 302 342 266 58 2 303 235 273 289 304 312 281 235 172 266 215 263 287 294 298 330 349 354 342 318 333 323 1 2 1 354 352 1 27 165
359 23 8 315 1 352 300 329 339 5 320 319 320 64 339 291 290 249 260 315 296 298 171 183 257 234 251 271 286 271 354 346 2 357 356 336 356 357 352 353 354 358 8 30 43
18 4 348 306 320 342 13 22 302 333 264 299 288 312 306 232 243 290 315 247 250 311 258 208 272 284 304 298 310 310 4 341 9 5 353 343 343 351 340 347 5 2 6 17 36
8 354 337 317 343 14 237 346 308 323 277 258 304 318 296 249 300 284 273 263 248 272 309 256 266 313 275 301 316 80 6 335 327 26 358 347 328 336 343 340 16 0 9 10 45